Wind_Speed
13 22 25 28 28 29 30 31 31 31 29 28 29 30 30 29 28 28 28 28 29 29 29 28 27 25 25 24 24 23 22 22 21 20 19 19 18 19 20 21 21 22 22 23 24 25 26 27 26 25 24 25 24 24 23 21 20 20 21 21 22 22 23 23 22 21 20 19 21 22 24 26 24 19 17 19 19 17 15 15 16 17 19 19 19
14 20 23 26 28 29 30 30 30 30 29 29 29 30 29 29 27 26 27 29 29 29 28 28 26 23 23 23 24 24 23 23 23 22 21 20 19 19 21 21 22 22 22 23 24 24 24 26 27 28 28 28 27 26 25 24 22 22 22 22 22 21 22 22 22 18 12 12 13 14 18 21 16 13 16 15 12 12 14 17 19 20 20 18 17
11 14 18 24 26 28 30 29 30 30 30 29 29 28 29 28 27 26 28 28 29 28 28 27 24 22 22 22 23 22 22 23 23 22 23 23 22 22 22 23 24 24 23 23 24 24 24 25 26 28 30 31 30 29 28 27 26 24 23 24 22 21 21 21 21 16 12 12 11 6 6 9 10 11 11 10 13 20 22 20 18 16 15 15 16
10 10 14 21 25 26 27 27 28 29 29 29 28 27 28 28 27 27 28 28 28 28 28 27 25 25 24 23 23 22 23 24 25 25 26 26 25 24 24 24 24 23 23 23 23 24 23 24 24 25 27 29 30 30 30 30 30 29 27 25 23 21 19 18 19 17 15 12 6 2 2 3 5 5 7 16 22 20 14 10 12 15 17 19 20
9 8 11 19 22 23 25 25 27 28 27 26 27 27 26 27 27 27 27 27 27 29 30 29 28 28 28 27 27 26 25 26 27 28 28 27 26 25 25 24 23 22 22 22 22 23 23 24 24 25 25 25 27 29 29 29 30 31 30 29 27 24 22 20 18 19 19 16 10 6 3 2 3 3 9 14 12 8 11 15 18 19 19 19 19
9 10 12 17 20 22 24 25 26 26 25 25 25 26 27 27 27 28 27 27 29 30 31 31 28 27 28 27 26 26 24 23 24 26 27 27 28 28 28 26 25 24 23 22 22 23 23 24 24 25 25 25 26 27 28 28 28 30 30 32 31 29 26 21 20 22 22 20 19 17 14 11 9 6 6 5 6 12 17 18 16 15 16 19 22
9 11 14 16 18 20 22 23 24 24 23 25 26 27 27 27 28 29 28 28 30 31 31 30 27 26 26 24 22 22 21 22 25 26 27 28 29 30 29 28 27 26 25 24 23 23 23 24 25 26 26 27 27 27 27 27 28 28 29 31 32 31 27 23 24 25 21 19 21 24 25 24 21 13 6 5 7 11 11 11 14 19 23 26 27
7 8 11 15 17 19 20 21 23 23 24 27 27 27 28 29 29 29 29 29 30 31 30 29 26 25 25 23 21 21 22 25 27 27 27 27 27 27 27 28 28 27 26 24 23 23 24 24 23 23 24 25 25 26 27 27 28 28 28 29 31 31 30 28 29 27 22 21 21 22 23 25 25 23 19 13 6 6 9 12 17 20 23 24 24
8 8 10 15 17 19 19 21 23 25 26 27 27 27 29 30 29 30 31 31 31 30 29 27 26 25 23 23 24 25 26 26 26 26 27 28 28 28 28 28 28 28 26 25 23 22 22 21 20 20 22 22 23 24 25 26 27 28 28 29 30 31 32 31 31 29 27 27 24 21 21 21 22 23 24 20 11 9 9 9 11 14 16 20 22
7 11 13 16 18 18 19 21 23 24 25 26 28 30 32 32 30 31 32 31 29 28 27 26 24 22 23 26 28 28 27 26 26 27 28 28 28 28 28 29 30 28 26 25 23 21 20 21 22 23 23 23 23 24 25 25 25 26 27 28 30 31 32 32 32 33 32 32 29 25 21 18 15 14 17 19 15 12 10 8 10 12 12 15 18
6 9 14 16 17 18 19 20 21 23 26 30 32 33 32 29 27 29 30 27 26 25 25 24 21 22 26 29 27 25 26 26 27 28 29 28 27 28 29 30 28 26 25 25 23 23 25 25 26 27 27 27 27 27 26 26 26 26 26 27 28 30 31 32 33 34 33 32 32 30 28 24 20 15 16 19 15 10 9 7 10 14 15 18 17
5 6 10 13 14 16 18 19 21 25 28 31 32 32 28 23 25 31 30 26 25 25 23 21 22 27 31 29 25 24 25 25 25 26 27 27 27 29 29 28 27 26 26 25 23 25 28 29 29 31 31 31 30 29 28 28 28 28 28 27 27 28 30 31 32 34 33 32 33 33 33 33 31 28 25 24 21 18 13 7 9 13 13 19 22
5 5 7 11 12 14 16 17 18 21 22 24 28 29 23 20 26 31 28 25 26 23 21 22 28 33 31 25 24 24 23 22 23 23 26 28 29 28 27 26 26 25 25 26 28 31 32 31 30 31 32 32 32 32 31 31 30 31 31 30 29 28 28 29 31 34 33 34 35 35 35 35 35 35 32 28 26 24 17 9 11 13 10 15 23
5 5 7 10 11 12 13 14 14 15 16 20 27 27 20 21 28 28 24 26 26 22 21 27 33 32 26 22 22 21 20 21 23 25 29 30 27 24 24 25 24 23 28 32 34 33 32 30 30 31 32 33 33 34 33 33 33 32 32 32 32 31 29 29 31 33 34 35 36 35 35 35 36 35 34 31 28 25 20 13 10 11 11 13 17
5 6 8 10 11 11 11 12 13 13 15 21 28 26 19 22 27 25 23 26 25 22 25 30 31 27 23 21 20 17 18 23 29 31 31 28 23 22 24 23 22 25 33 37 35 33 31 30 31 32 32 32 32 33 33 33 33 32 34 35 36 34 32 31 32 33 34 36 36 36 36 36 37 35 34 33 32 29 27 23 14 7 8 10 10
4 5 8 10 11 11 11 12 12 13 17 24 28 23 17 22 26 23 22 24 23 22 25 28 27 24 22 20 16 15 20 28 35 36 31 24 22 23 24 22 22 27 32 34 34 33 32 31 31 31 31 33 33 33 32 32 31 31 33 35 37 37 35 34 35 34 34 36 36 37 37 37 38 36 35 35 35 33 30 29 23 13 8 7 7
4 5 7 9 9 10 11 12 12 15 18 23 26 20 16 22 24 20 19 20 21 22 24 26 24 22 21 17 15 17 24 32 37 36 28 23 23 23 22 23 24 26 28 30 32 32 30 29 29 30 31 32 33 33 32 31 30 30 31 31 33 33 33 35 35 34 35 35 35 35 36 38 38 36 35 36 35 34 32 31 28 23 16 8 6
4 7 8 8 9 9 11 12 13 16 18 21 23 17 16 20 18 16 17 19 21 22 23 24 22 20 19 16 16 20 28 35 36 29 23 23 24 22 22 25 26 26 28 30 30 30 29 28 28 30 30 31 32 31 29 28 27 28 28 29 29 29 29 32 33 33 34 34 34 35 35 36 37 35 35 36 35 33 33 32 31 30 26 17 9
4 6 7 7 9 10 12 13 13 16 17 19 20 15 15 18 15 15 18 19 20 22 23 23 21 20 18 16 18 24 31 36 32 24 22 23 23 23 24 26 26 27 29 31 30 30 29 29 29 30 31 32 31 29 27 26 26 27 28 28 28 27 29 32 31 30 31 31 31 34 34 34 35 34 34 35 34 33 32 32 31 30 30 27 21
4 5 5 8 9 9 11 12 13 15 16 16 16 15 16 17 15 17 20 18 20 23 24 23 21 21 18 17 20 28 35 35 27 23 23 23 23 24 25 25 26 29 31 31 31 30 29 29 29 30 31 31 30 29 27 26 27 28 27 28 29 28 30 33 33 32 31 31 30 32 33 34 33 32 33 34 33 33 32 32 32 31 31 30 28
5 5 6 8 8 9 11 13 14 15 15 15 15 15 17 17 16 18 19 18 20 25 25 22 21 22 19 17 23 32 36 31 24 24 25 24 24 25 25 27 29 32 31 29 29 29 28 29 30 30 30 29 29 28 27 26 27 27 27 28 28 29 30 32 33 34 33 32 32 31 32 32 32 31 31 32 32 32 32 32 31 31 30 30 29
5 5 6 7 7 10 12 14 15 16 15 15 16 16 17 18 18 18 18 18 21 25 24 21 22 23 18 18 27 34 32 27 26 27 26 25 26 26 27 29 30 31 29 27 28 28 28 29 30 30 30 29 28 27 27 26 27 28 29 28 28 28 29 30 31 34 35 34 34 34 33 31 30 31 32 31 31 31 31 31 31 30 30 31 30
5 5 5 6 9 12 14 14 15 16 16 16 16 16 17 19 18 19 18 19 23 26 25 22 23 23 19 21 29 33 30 29 30 28 25 25 27 27 27 28 29 29 27 26 27 27 28 29 29 29 29 28 28 27 28 28 28 29 29 29 28 28 29 30 30 32 34 33 33 34 34 31 27 27 29 30 30 30 30 30 31 31 31 31 31
5 5 6 8 10 12 13 13 14 16 15 15 16 16 18 19 19 19 19 20 25 27 25 23 23 22 20 23 29 30 28 28 27 26 25 26 27 27 27 28 29 29 27 27 27 27 29 29 28 29 29 28 29 29 30 30 29 28 30 31 31 31 31 31 31 32 32 32 32 32 33 32 29 27 28 28 28 29 29 29 31 31 31 32 31
5 6 6 8 10 11 12 12 14 15 15 16 16 16 18 20 20 19 19 22 25 25 24 23 23 22 21 23 26 26 25 26 26 26 26 26 27 28 28 28 29 29 28 29 29 29 28 28 29 30 30 31 30 30 31 31 30 29 30 31 31 30 30 30 31 31 30 31 32 31 31 31 29 29 29 29 28 29 29 29 31 31 31 31 31
6 6 5 7 9 10 11 12 13 14 15 16 17 17 18 19 19 19 21 23 24 23 23 23 22 21 21 22 23 24 25 26 26 26 27 27 28 28 29 29 29 29 29 30 31 29 29 30 31 31 31 32 32 31 31 31 32 31 30 31 32 32 33 32 33 34 34 34 34 33 31 30 29 29 29 29 29 29 30 30 31 32 31 30 30
7 6 5 6 8 9 10 11 12 14 15 16 16 17 18 19 19 20 22 23 23 22 22 22 21 20 21 22 23 24 25 26 26 26 27 28 28 28 29 29 28 28 30 31 31 31 32 32 32 33 33 33 33 33 33 32 33 33 33 35 36 36 37 37 37 38 37 37 36 35 34 32 32 32 33 32 31 30 30 31 32 32 31 30 29
6 5 4 5 7 8 9 11 12 15 17 17 17 17 18 19 19 20 22 23 22 22 22 21 21 21 22 23 24 25 26 27 27 28 28 28 28 29 29 29 30 30 31 32 33 34 35 35 34 35 36 36 36 36 36 35 36 36 37 38 40 41 42 43 42 40 37 37 38 38 38 37 36 37 37 37 36 34 32 32 33 33 31 30 29
6 6 4 4 6 8 10 11 13 16 18 18 18 18 19 20 20 21 24 25 23 22 23 22 22 23 23 25 26 26 28 29 29 29 29 29 30 30 30 31 32 33 33 34 35 35 36 37 38 39 38 38 38 38 39 37 38 38 38 39 41 42 43 44 44 42 39 37 38 39 39 39 39 39 39 38 37 36 34 33 32 32 31 31 28
6 7 5 4 7 10 11 13 15 17 18 18 18 19 20 21 20 22 25 26 23 22 22 23 23 25 26 27 28 30 31 32 31 31 31 31 31 32 33 34 35 35 35 36 36 36 37 38 40 41 40 39 39 40 40 38 37 38 38 38 39 38 37 37 39 39 38 38 39 39 40 41 42 42 42 40 39 39 39 38 36 33 32 31 28
6 6 6 7 9 11 12 13 15 17 18 18 18 20 20 20 20 23 25 24 23 22 23 24 26 27 28 29 31 33 34 34 34 33 33 34 35 35 35 36 36 36 37 37 37 38 39 39 40 41 41 42 43 43 40 39 38 38 38 38 38 38 38 38 39 41 41 41 41 41 39 39 40 42 42 42 42 41 40 40 40 39 37 35 32
6 6 6 7 10 12 12 13 16 18 18 18 19 20 19 19 21 24 25 24 24 24 24 26 27 28 30 31 33 34 35 35 35 35 35 36 36 37 37 37 37 38 38 38 39 39 40 40 40 41 42 43 44 44 41 40 41 40 39 40 40 40 39 39 40 40 40 40 40 40 37 36 37 38 39 40 40 39 39 39 40 41 40 39 39
5 6 7 8 11 12 12 14 16 18 18 18 19 19 19 21 24 25 25 25 25 25 25 27 28 30 32 33 34 34 35 36 35 35 36 37 37 38 37 37 38 39 38 39 40 40 40 41 40 41 43 44 46 46 43 42 43 42 41 41 40 38 36 36 37 37 36 36 35 36 35 32 33 35 35 36 36 36 36 35 36 37 37 39 41
5 7 9 11 12 13 13 15 17 18 18 19 19 19 21 24 25 25 25 25 25 26 26 27 29 31 33 34 34 34 36 36 36 37 38 37 37 37 37 37 38 38 38 39 40 40 41 42 42 42 43 45 47 47 44 44 45 44 43 42 40 36 33 33 33 32 32 32 32 32 31 30 30 31 32 32 32 32 32 31 30 29 29 31 33
5 7 9 12 13 13 14 16 17 18 19 19 19 19 22 24 25 25 25 24 25 26 26 27 30 32 33 34 35 36 36 37 38 37 38 38 37 37 37 38 38 37 37 38 39 40 42 43 44 43 43 45 47 46 44 45 47 46 44 42 39 34 31 30 30 29 29 30 30 30 29 28 28 29 30 30 29 29 29 28 27 24 23 24 25
6 7 9 12 14 13 15 17 18 19 19 18 18 20 22 24 24 24 25 24 25 25 26 28 30 32 34 34 35 36 37 37 37 37 38 38 38 37 38 38 38 38 37 37 38 39 41 43 44 44 43 44 47 47 44 45 47 46 44 42 37 32 29 28 27 27 27 28 28 28 27 26 26 27 29 29 27 27 27 26 25 24 23 23 25
7 9 11 13 14 15 17 19 19 20 19 18 20 22 23 24 24 24 24 24 24 25 26 28 31 32 34 35 35 36 36 37 36 37 38 38 37 38 38 37 37 38 38 38 39 40 41 42 43 44 43 43 46 48 45 45 47 44 41 39 34 28 27 26 25 26 26 27 28 27 26 25 24 25 27 28 27 26 26 25 24 23 23 24 25
8 11 14 15 15 16 18 20 19 19 19 18 21 23 22 23 23 23 24 24 24 25 26 29 31 33 34 35 35 34 35 36 36 35 37 38 38 38 38 37 36 37 39 40 40 40 42 43 41 42 43 42 44 46 45 44 46 43 39 35 30 25 24 24 25 25 25 25 25 25 24 23 23 24 26 27 26 24 24 25 25 23 22 23 24
11 13 15 15 16 17 19 20 19 19 19 19 21 22 21 22 23 23 24 24 24 26 28 30 32 33 34 34 35 35 34 34 35 35 36 37 38 38 38 38 36 37 38 39 39 39 42 43 42 42 43 42 42 44 44 43 45 44 39 32 26 23 22 22 22 22 22 22 22 24 23 21 21 23 24 24 25 23 21 24 26 23 20 22 26
13 15 14 15 16 17 18 19 18 18 20 20 20 20 20 22 23 24 24 25 26 28 30 32 33 34 34 35 35 35 35 34 34 35 36 36 37 37 39 39 38 38 37 38 40 40 40 42 42 42 43 42 40 40 42 42 44 45 42 35 26 21 19 20 19 19 19 19 21 22 22 19 19 20 21 22 23 23 21 23 25 24 21 24 27
14 15 14 14 16 16 17 18 18 19 20 20 20 20 21 23 23 24 25 26 28 30 31 32 33 34 35 35 35 35 35 34 33 34 35 36 36 36 38 38 39 38 37 38 40 39 38 41 42 42 42 41 39 38 40 42 44 46 46 40 29 23 21 21 20 18 18 19 20 21 21 19 18 18 19 20 21 22 22 22 24 26 27 26 25
14 14 14 14 15 16 17 19 19 20 21 21 21 21 22 23 23 24 26 27 29 31 31 32 33 34 34 34 34 34 34 34 33 32 33 35 36 36 37 37 37 37 37 38 39 37 37 39 42 42 41 39 38 39 40 41 45 49 50 43 30 23 22 21 20 19 19 19 20 22 21 19 18 18 19 19 20 21 22 22 24 28 29 26 24
14 15 15 15 16 17 18 20 21 21 22 21 21 21 23 23 24 25 27 28 29 30 31 32 33 34 34 34 34 35 34 33 32 31 31 34 36 37 37 36 35 36 36 36 37 36 35 37 40 43 41 38 39 41 40 41 46 49 50 46 31 21 20 18 18 19 19 20 21 22 22 20 19 19 20 21 21 22 22 22 23 25 27 27 26
15 16 16 16 17 18 19 21 22 22 22 21 21 22 23 23 25 26 28 29 30 30 31 33 33 33 34 34 33 34 33 32 31 30 30 32 34 36 36 36 34 34 33 33 33 33 33 33 35 38 38 38 40 41 41 43 46 46 47 47 37 24 20 17 15 17 19 20 20 21 21 20 19 20 21 21 22 23 22 22 22 22 22 25 25
16 17 17 17 18 19 20 22 23 23 23 22 22 22 23 24 26 27 27 28 30 30 31 32 33 33 34 34 33 33 32 31 30 29 29 31 32 33 35 35 34 33 32 30 29 30 31 31 30 32 34 36 38 39 41 45 46 42 43 46 41 31 24 18 14 12 13 15 16 18 19 19 20 20 21 21 20 20 20 20 20 20 19 20 21
17 18 18 18 18 19 20 22 24 24 23 24 23 22 23 25 26 26 26 27 28 30 31 31 32 32 33 32 32 33 32 31 30 29 28 29 30 30 31 33 33 32 31 29 27 28 29 28 27 30 33 34 34 36 39 44 44 39 39 42 41 36 27 19 14 11 10 11 12 13 14 16 17 18 18 19 19 19 18 17 17 18 18 19 18
17 18 19 18 18 19 19 21 24 25 24 24 24 22 22 24 25 25 25 26 27 29 30 31 32 32 32 31 31 31 31 31 31 30 29 29 29 29 28 29 31 31 30 28 28 28 28 25 26 30 33 32 32 33 37 41 40 37 37 37 37 37 31 23 16 11 10 11 11 10 11 12 13 13 13 13 15 16 16 15 15 16 16 16 17
18 18 18 18 17 18 20 21 24 25 25 24 24 23 22 23 24 24 24 25 27 28 29 31 31 30 30 30 30 30 30 30 31 31 29 29 30 30 28 27 29 29 28 27 27 27 27 26 26 28 29 29 30 32 37 40 37 34 34 34 33 34 33 27 20 14 10 10 12 11 11 11 10 10 8 7 6 8 10 13 16 16 14 13 13
18 18 18 18 18 19 20 22 24 25 25 24 24 23 23 22 23 24 24 25 27 28 29 31 30 29 29 29 29 29 29 29 30 31 30 28 28 27 28 29 29 27 26 28 29 28 27 27 27 26 26 26 26 30 35 38 36 33 31 31 31 31 30 28 24 17 15 20 23 21 19 19 19 19 18 16 12 7 2 2 6 9 10 11 11
19 18 18 18 20 20 21 23 24 25 25 24 24 23 23 22 22 23 23 24 26 28 30 30 29 28 28 28 28 29 29 29 29 29 30 32 30 27 25 26 27 28 28 30 30 29 28 28 28 27 27 26 27 30 34 36 36 34 30 29 29 29 28 27 24 23 26 28 26 21 19 19 18 17 17 18 19 18 14 11 8 6 1 2 5
19 18 19 20 21 21 21 23 24 25 25 24 24 23 22 21 21 22 22 23 25 26 28 29 29 28 28 27 27 28 29 29 29 29 29 31 33 33 31 28 25 25 28 30 30 30 30 31 30 29 29 29 29 30 33 35 35 33 31 28 27 27 28 25 23 26 30 28 22 18 18 19 18 17 16 17 19 22 20 18 17 17 14 11 7
Wind_Direction
97 99 102 98 90 87 85 82 81 77 69 64 59 53 49 45 40 35 29 24 22 19 14 12 9 5 359 356 352 350 348 344 338 333 329 325 323 322 323 324 324 322 321 320 318 313 308 302 299 301 301 298 296 296 297 297 297 298 299 298 300 300 300 304 304 302 302 304 307 309 309 309 309 308 306 305 304 304 307 307 308 312 311 310 307
98 94 91 87 82 80 80 78 75 69 62 58 53 48 44 42 39 34 27 23 22 17 12 9 8 4 358 354 352 350 351 350 346 343 340 334 329 327 327 327 326 325 323 323 321 317 313 306 300 298 297 296 294 293 292 292 292 292 291 291 293 291 293 302 302 296 292 297 307 311 312 314 313 310 307 305 308 311 311 308 307 309 308 309 313
93 86 80 79 77 77 75 71 68 63 58 54 49 45 40 39 36 30 25 21 18 14 10 9 7 5 1 357 356 352 350 349 347 345 342 339 336 335 333 331 330 328 327 326 325 323 320 314 308 302 297 294 292 292 291 289 289 288 286 285 286 284 286 296 299 289 275 285 303 303 309 326 319 312 307 301 309 309 304 302 300 303 305 310 314
91 80 74 74 74 73 70 66 63 59 54 49 45 41 37 35 31 26 21 17 14 12 10 9 6 3 0 357 355 351 347 346 345 345 345 344 343 342 341 339 337 334 332 332 331 330 328 324 320 312 305 299 295 294 293 291 289 286 285 282 277 274 275 284 291 286 274 272 281 276 312 330 299 308 318 307 307 304 299 296 297 300 302 303 304
92 82 73 74 74 71 68 64 60 56 51 46 42 38 35 32 26 21 18 15 13 11 8 7 5 2 358 355 353 351 349 350 350 348 348 348 346 343 342 341 341 339 338 338 337 337 335 332 330 324 318 311 303 298 296 295 292 287 284 280 273 268 268 271 275 280 276 262 241 240 292 314 261 307 320 310 305 291 285 291 296 299 298 298 301
85 83 79 78 76 71 66 62 58 54 48 42 39 36 32 27 21 17 16 14 12 8 6 6 6 4 1 359 356 353 353 355 353 347 343 341 338 335 334 334 334 334 333 334 337 340 338 335 333 330 325 320 314 306 301 298 295 291 287 280 275 272 267 261 262 272 275 262 248 245 248 247 256 297 322 305 291 285 285 289 293 293 292 292 294
79 77 78 79 76 72 67 60 56 51 43 38 35 31 27 21 16 14 15 13 9 5 5 7 7 5 5 4 0 358 355 349 344 339 335 334 333 333 334 334 333 330 327 326 328 332 333 332 332 330 326 323 319 313 307 304 300 298 293 284 278 275 266 255 256 265 266 259 256 252 248 247 249 255 253 270 296 290 277 276 280 284 288 290 292
80 75 77 79 76 73 69 61 55 47 38 34 31 26 21 16 13 13 14 11 6 4 5 9 9 6 7 7 4 359 350 341 337 336 337 338 338 339 339 339 339 338 334 330 327 327 329 330 330 330 329 327 325 319 314 311 306 302 298 291 283 276 267 259 259 259 254 255 259 255 250 247 245 243 242 248 271 290 282 276 275 280 285 287 290
77 77 80 80 76 72 67 61 50 40 35 31 27 22 16 13 12 11 10 6 3 4 7 11 11 9 9 6 357 349 343 340 340 342 344 345 344 343 342 341 341 342 341 339 336 335 335 334 333 334 334 334 332 328 324 318 312 306 301 295 287 280 273 266 261 258 253 255 256 252 249 247 243 243 242 240 240 257 274 281 281 283 279 276 280
73 78 81 79 74 68 62 55 44 35 32 27 22 17 11 11 10 7 6 2 2 6 8 10 12 11 6 356 349 345 345 346 347 347 347 347 345 344 344 341 340 342 343 345 345 341 337 336 337 336 334 333 331 330 328 325 319 311 305 298 291 283 277 270 265 262 258 255 253 248 245 240 237 239 234 230 233 243 252 268 278 279 278 275 273
71 76 80 77 69 61 55 49 39 30 25 21 17 12 8 9 7 3 3 2 4 6 7 9 10 3 354 349 348 349 349 349 348 347 347 347 346 342 340 338 339 340 339 342 341 334 331 330 330 329 327 327 326 326 325 323 320 315 309 303 294 286 280 274 268 265 260 256 252 246 242 240 236 236 229 221 221 229 242 257 263 265 273 276 273
71 72 75 69 59 51 48 42 33 26 21 17 14 10 9 9 3 1 3 3 4 4 6 7 360 351 347 350 354 353 352 351 348 347 347 345 341 335 334 333 333 332 332 334 332 327 326 324 322 320 319 319 319 318 317 315 314 312 309 304 298 291 285 278 270 266 260 256 252 247 245 244 241 242 241 230 224 229 236 245 255 259 270 274 275
68 69 67 61 52 46 43 37 30 26 23 17 12 10 12 9 1 0 2 1 1 4 4 357 349 347 348 352 355 353 352 353 351 348 345 339 333 329 329 328 328 329 329 328 324 320 320 319 318 316 314 313 311 309 308 307 306 305 304 302 298 294 288 281 273 268 263 258 255 252 248 246 244 245 244 238 234 235 235 240 253 249 251 272 277
62 71 73 64 58 52 45 38 32 28 24 15 11 10 11 4 359 360 360 359 2 3 355 347 346 347 350 351 352 353 354 353 350 344 338 332 328 325 325 325 325 323 323 325 324 322 321 318 315 313 311 310 308 306 304 302 300 298 297 296 295 294 291 286 278 272 268 262 258 255 251 248 246 245 242 238 236 234 230 232 244 244 239 258 273
67 77 82 76 65 58 47 37 31 26 21 13 9 9 7 360 358 359 357 358 1 357 346 343 344 345 347 350 352 353 350 347 345 339 334 329 326 324 323 324 322 317 321 329 332 330 326 320 317 315 314 313 311 310 307 303 300 296 291 289 287 287 288 286 281 276 271 266 261 257 255 252 249 246 240 237 236 234 233 232 231 237 246 250 262
77 84 85 79 67 57 45 35 29 23 17 10 6 7 2 356 356 357 356 356 356 349 340 340 342 341 344 349 348 342 340 340 339 337 336 332 326 323 321 321 320 316 321 328 331 330 327 323 321 319 319 319 318 316 313 309 305 300 294 290 286 283 282 280 279 277 273 269 264 260 256 253 251 248 242 239 238 237 237 236 230 226 240 255 257
83 90 86 76 66 56 42 34 28 22 15 6 3 4 356 352 354 353 352 351 349 344 339 339 339 337 341 345 336 332 336 337 337 337 337 332 327 324 320 319 319 317 319 323 324 324 323 320 318 318 319 319 319 318 316 314 311 305 300 296 291 287 281 276 275 275 273 270 266 261 256 254 253 250 244 241 239 238 237 238 235 229 230 241 260
97 96 90 72 61 53 37 30 25 19 10 0 360 0 351 349 350 348 347 347 346 343 339 339 338 334 336 334 325 328 334 336 338 337 331 327 327 325 322 321 319 317 318 319 320 319 319 319 317 316 317 317 318 319 317 315 312 308 304 300 297 294 287 279 275 273 272 270 266 262 257 254 252 249 245 242 240 238 237 237 237 235 233 232 241
101 92 84 63 52 45 32 24 18 11 2 355 357 356 346 345 346 345 343 341 342 341 339 339 337 332 331 324 321 328 333 336 339 336 328 326 325 322 321 321 319 318 319 319 320 320 318 319 318 316 316 315 316 317 314 311 308 305 304 301 299 298 294 288 283 278 275 272 267 263 258 254 252 248 245 244 241 239 238 237 237 236 234 233 235
91 85 71 53 43 36 27 20 11 3 354 352 356 353 345 344 341 340 339 336 338 341 339 337 334 332 328 321 323 330 334 337 337 333 329 325 322 320 318 319 319 320 320 319 320 320 318 316 315 314 313 312 312 312 310 307 305 303 302 300 299 297 294 290 287 283 278 274 270 264 259 254 252 248 244 244 242 240 239 238 236 235 234 234 235
80 73 52 40 32 25 19 12 4 356 352 355 356 350 345 343 339 337 337 336 337 339 338 333 331 331 327 321 325 331 334 336 332 328 328 325 323 322 320 319 321 321 320 317 315 315 314 313 312 311 310 308 307 306 306 304 303 301 299 298 297 296 292 288 285 282 278 275 272 268 263 257 252 248 245 243 242 240 239 237 235 234 234 233 233
73 59 39 31 26 16 7 2 359 354 354 356 353 348 345 341 337 335 335 334 335 337 336 332 331 333 329 322 326 331 335 334 331 329 327 324 323 322 320 320 319 319 318 314 310 311 310 311 310 308 307 307 304 302 303 302 300 298 297 295 294 294 292 288 285 282 279 276 274 270 266 261 254 250 248 246 244 241 238 236 235 233 233 234 232
66 47 32 28 21 9 1 358 358 355 354 352 348 346 343 338 335 333 332 332 334 336 335 331 331 333 329 322 326 332 334 333 332 329 325 322 321 320 319 318 316 315 314 311 310 309 308 308 307 305 305 304 302 301 302 301 298 296 294 293 291 290 288 286 284 282 279 277 274 270 266 262 258 253 250 248 246 244 240 237 237 235 235 237 235
46 24 22 22 15 7 2 359 357 353 350 346 342 340 339 336 333 332 330 329 332 334 333 330 330 332 328 324 327 331 331 330 328 325 322 321 319 318 318 316 315 314 312 311 312 310 309 308 306 305 304 302 301 300 300 298 295 292 291 290 290 288 285 282 281 281 280 277 273 269 264 262 260 256 253 251 247 246 243 240 240 238 237 239 238
21 2 16 20 11 5 2 356 352 349 345 341 337 336 336 334 332 330 328 327 329 330 330 329 328 328 327 325 326 329 328 326 325 323 321 319 318 317 317 316 316 315 312 312 313 311 310 308 306 306 304 302 301 299 297 296 292 289 288 288 287 287 284 281 280 280 279 277 273 269 266 263 260 256 254 252 250 248 247 243 242 241 238 239 239
9 355 16 18 3 357 354 349 347 345 340 336 333 332 333 331 329 329 326 325 327 327 328 328 326 325 325 325 325 326 326 324 322 322 321 319 318 317 316 316 316 315 313 312 311 309 308 306 305 304 302 301 300 297 295 294 291 288 286 285 284 283 283 282 281 280 279 277 275 272 270 267 263 259 257 255 253 250 248 245 242 241 239 237 236
2 354 16 9 350 345 345 343 342 341 337 332 330 329 330 328 327 327 326 325 325 325 325 326 326 325 325 326 326 325 324 322 321 320 320 319 318 317 316 316 315 313 312 310 309 308 307 305 303 302 301 300 299 297 295 292 290 287 284 283 282 281 281 281 280 279 278 275 274 273 272 269 265 262 259 257 255 253 250 247 243 241 238 235 232
353 348 7 358 340 336 338 337 338 338 334 330 328 327 327 327 324 324 325 325 324 324 325 326 326 327 327 327 327 324 323 322 321 320 319 318 318 317 315 314 313 312 310 308 308 308 307 305 303 301 302 301 299 298 296 293 291 288 285 282 281 281 281 281 280 279 276 274 272 271 269 267 264 262 260 256 254 251 250 248 245 240 236 232 229
344 338 347 346 334 333 335 335 336 336 333 330 328 327 327 327 324 323 326 328 327 326 326 327 326 327 327 327 326 325 324 323 322 321 320 319 318 316 314 313 313 312 311 310 310 309 307 306 305 305 304 303 301 298 297 294 291 288 285 281 280 279 278 277 277 276 274 272 270 269 266 264 261 259 258 255 252 250 248 247 243 238 232 229 227
337 333 334 334 332 333 332 332 334 334 332 329 328 328 327 325 324 324 326 329 328 325 325 326 325 326 326 326 326 326 325 325 324 322 321 320 318 317 315 315 315 314 314 314 312 311 309 309 308 308 307 305 303 301 298 294 291 289 286 283 280 278 275 273 273 273 273 272 270 268 265 263 260 257 255 254 252 252 251 248 243 236 230 226 222
330 327 329 330 330 330 329 331 332 332 330 329 327 327 326 324 323 324 324 326 326 324 324 325 325 326 326 327 327 327 327 326 325 324 323 321 320 319 318 318 318 318 317 316 315 313 313 312 310 309 308 306 305 303 299 295 293 292 289 285 281 279 276 274 274 273 274 273 272 270 265 262 259 256 255 253 252 252 252 249 243 236 230 226 222
322 323 330 330 327 326 326 328 330 330 328 327 326 325 323 322 323 323 323 324 325 325 324 324 325 326 327 327 328 328 327 326 326 325 324 323 322 322 322 321 321 321 320 319 317 315 314 314 312 309 308 307 306 304 300 297 296 294 290 287 283 280 279 278 277 277 277 277 278 277 271 263 257 255 253 252 250 251 251 249 246 239 230 225 223
321 328 329 325 321 321 322 325 328 328 326 325 325 323 321 322 322 322 323 324 324 324 323 324 325 326 327 328 328 327 326 325 326 325 325 325 325 323 323 323 322 322 321 319 317 316 315 313 311 310 309 307 307 306 302 299 298 295 293 291 288 285 283 282 281 281 282 283 285 284 278 266 256 252 250 248 247 249 250 251 251 245 234 227 226
326 326 324 320 317 316 317 323 327 326 324 324 323 321 320 321 322 323 323 323 323 324 324 324 326 327 328 328 328 326 325 325 327 327 327 326 325 324 324 323 323 322 320 318 317 316 315 313 312 310 309 308 308 307 303 301 301 299 297 294 292 289 287 285 285 285 287 289 289 287 280 267 256 251 246 243 242 242 245 247 249 246 238 232 232
318 317 316 315 314 312 316 323 326 325 324 323 322 321 321 321 322 323 322 323 322 322 322 323 325 326 327 328 327 327 326 327 328 328 327 326 325 324 324 324 322 320 318 317 316 315 314 313 313 312 310 309 309 307 303 302 304 304 303 299 294 292 289 286 285 285 286 288 289 289 283 270 257 250 244 241 237 234 236 239 240 241 238 234 236
310 311 313 314 311 311 317 323 324 323 323 322 321 323 322 321 322 322 321 321 321 320 321 324 325 326 327 328 328 327 326 327 327 327 326 326 325 324 324 324 322 320 318 317 315 314 313 313 313 314 311 309 310 310 306 304 307 308 306 301 294 289 286 283 282 282 283 286 288 289 284 272 257 248 243 240 234 227 226 229 232 235 237 237 239
305 310 316 318 313 311 317 322 322 322 324 324 323 324 323 321 321 321 320 321 320 320 322 324 324 326 327 327 328 327 325 325 326 326 325 324 324 323 323 324 322 319 318 317 316 316 315 313 313 314 312 309 311 312 308 307 311 313 308 301 294 286 282 279 279 279 279 283 287 287 283 271 256 245 241 240 237 225 218 220 224 228 233 238 242
311 319 324 322 315 312 316 320 321 322 324 325 325 324 322 319 319 320 320 319 319 320 322 323 324 325 326 326 327 326 325 324 324 324 324 323 323 323 323 324 322 318 318 318 318 317 317 316 315 315 314 311 310 312 311 311 316 318 311 302 293 284 278 274 275 276 276 281 285 285 281 268 252 242 239 240 240 229 214 212 217 221 225 230 236
319 323 323 319 312 312 315 318 320 321 324 326 325 323 320 317 318 320 319 319 320 322 323 323 323 324 325 326 327 326 325 325 324 324 324 323 324 324 324 324 322 320 319 318 319 318 318 319 318 318 318 315 313 316 317 316 319 322 319 308 293 280 273 271 271 273 275 279 283 285 284 271 252 242 238 238 241 235 218 211 213 213 215 224 232
319 320 317 313 310 311 313 316 319 321 323 326 325 322 319 317 319 321 320 321 322 323 323 323 323 325 326 327 328 327 326 325 325 325 325 325 325 325 325 324 323 322 321 320 321 321 318 319 321 322 322 321 319 320 322 322 323 326 325 317 299 280 270 268 267 268 269 274 277 281 285 280 262 249 240 236 238 237 226 216 212 208 211 222 229
314 315 314 310 308 309 311 314 319 322 325 328 326 322 320 320 321 320 320 322 323 323 323 324 324 325 326 328 329 328 327 326 326 326 326 325 326 326 325 325 324 324 323 322 323 323 320 321 324 325 325 325 325 325 325 326 328 329 329 322 304 281 269 265 262 260 260 263 268 271 277 279 273 264 254 243 238 238 233 222 212 211 219 225 226
312 313 312 309 308 310 311 316 322 326 327 329 326 322 320 320 320 319 321 324 324 324 324 324 324 325 326 327 328 328 328 327 328 329 327 325 326 327 326 325 325 324 324 323 324 324 323 323 326 328 328 328 330 331 330 331 332 332 334 333 316 287 271 260 252 251 251 252 257 262 265 267 266 265 263 256 247 242 239 230 220 219 223 224 222
313 313 313 312 310 311 314 318 322 326 327 328 325 321 320 319 317 320 324 326 325 325 324 323 323 325 326 327 328 329 329 328 328 330 327 324 326 328 327 327 327 326 325 325 325 325 326 325 326 329 331 331 333 335 334 336 336 334 339 345 338 306 283 266 250 247 247 247 250 254 257 259 257 255 256 255 253 250 246 241 234 228 225 222 220
312 312 314 314 311 311 314 316 319 323 326 326 325 321 318 317 319 325 328 326 325 325 324 323 324 325 326 327 328 329 329 329 330 331 328 326 327 329 328 328 329 328 325 323 324 326 326 324 325 328 330 332 335 336 336 338 339 338 344 351 351 335 314 295 270 254 250 249 249 250 253 254 251 249 250 249 250 251 249 247 243 238 233 230 225
309 311 313 314 312 311 313 314 317 322 324 325 326 322 317 317 323 328 328 326 325 324 323 323 324 325 326 327 328 328 330 331 331 331 329 327 328 328 328 328 328 328 325 322 323 325 325 323 324 326 326 329 334 337 338 340 342 344 348 352 354 350 339 324 307 285 269 265 259 253 253 253 247 248 251 250 250 251 248 246 244 241 239 237 231
308 311 313 314 312 310 311 311 314 319 323 325 326 322 318 319 326 328 326 325 324 322 322 323 324 324 327 328 328 329 330 331 331 331 330 329 328 327 326 326 326 327 325 323 323 325 325 325 326 326 325 327 332 337 339 340 343 348 351 353 356 357 354 344 334 320 303 297 286 267 263 264 260 259 257 252 250 251 249 249 249 245 239 235 233
306 310 313 313 310 308 308 309 311 316 320 322 322 322 321 323 326 327 326 325 324 323 322 323 324 325 327 329 328 328 329 330 330 331 331 330 330 328 326 325 325 325 324 323 324 325 326 326 327 327 327 328 332 338 340 339 342 351 354 353 357 1 1 357 350 335 321 323 320 303 293 292 290 287 278 263 255 251 246 243 243 246 242 232 229
305 309 311 309 306 306 306 306 307 312 317 319 319 321 324 326 326 327 327 326 324 324 323 322 324 326 327 328 328 327 327 328 328 330 331 330 330 329 326 324 324 322 321 320 321 323 325 326 329 330 330 330 334 339 338 336 341 354 358 356 359 5 6 6 1 348 344 4 18 20 17 13 9 3 353 333 295 263 243 232 230 239 248 242 237
304 309 309 307 305 304 305 305 306 311 315 316 317 320 324 327 328 329 329 326 325 325 324 323 324 326 326 328 328 327 327 327 327 328 329 329 328 328 325 323 324 323 319 317 319 322 327 332 335 335 333 332 333 335 335 337 346 357 360 358 3 9 12 16 19 28 47 50 45 41 37 35 35 36 35 33 32 31 14 227 220 232 247 250 252
304 307 307 306 305 305 305 305 307 311 314 314 316 320 325 329 330 329 328 326 325 325 323 323 324 324 325 326 326 326 326 327 327 327 328 328 328 329 326 323 324 324 322 322 325 329 335 341 343 340 336 334 333 333 336 344 353 360 1 1 5 11 17 21 30 47 56 50 40 32 26 24 24 25 25 28 34 40 44 44 50 61 64 248 247
304 305 304 304 305 306 305 305 309 312 313 314 315 319 324 328 329 328 326 325 325 323 320 320 321 322 324 325 324 324 325 326 327 327 327 327 328 329 331 331 329 326 325 328 333 337 341 345 346 343 339 339 340 341 343 349 357 3 4 3 5 12 19 23 31 44 47 39 27 20 18 17 16 16 16 20 27 35 38 38 43 50 54 55 57
Height
846 846 846 847 849 850 850 851 851 852 853 854 854 854 855 855 854 855 856 855 853 852 851 850 848 847 845 844 843 841 840 839 838 837 836 835 834 833 832 831 830 829 828 827 826 825 824 823 823 822 821 820 819 819 818 818 817 816 815 814 813 812 812 812 811 810 809 806 804 802 801 800 799 797 796 796 795 794 794 793 792 792 791 791 790
847 847 849 850 850 852 852 853 853 854 856 855 855 857 857 857 857 858 857 855 854 853 852 851 849 848 846 844 842 840 839 838 836 835 834 834 832 831 830 829 828 827 825 824 823 822 821 820 820 820 819 818 817 816 816 815 815 814 812 812 811 810 809 809 809 809 808 806 804 801 798 796 795 795 794 793 793 793 793 792 791 791 790 790 789
848 849 851 852 853 854 854 855 856 856 857 857 858 859 859 859 859 858 857 855 854 853 852 851 849 848 846 844 842 840 838 837 836 835 834 832 831 830 829 827 826 824 823 822 821 820 819 818 817 817 817 816 815 814 814 813 812 812 810 809 809 808 807 807 807 807 807 806 806 803 800 796 793 792 792 791 792 791 791 790 789 789 789 788 788
851 852 853 855 855 856 857 858 858 858 859 860 860 860 860 860 859 858 857 856 855 853 852 850 848 847 845 843 842 840 838 836 835 833 832 831 829 828 827 826 824 822 821 820 819 818 817 816 815 814 814 814 813 812 811 811 810 809 809 807 806 805 804 804 804 805 804 805 806 804 802 801 796 792 790 788 789 789 788 788 788 787 787 787 787
853 855 856 857 857 858 860 860 860 861 861 862 862 861 861 860 859 858 857 856 855 853 851 849 846 844 842 840 838 837 836 834 832 831 830 829 828 827 826 825 823 821 820 818 817 816 815 814 813 812 812 811 810 809 808 808 807 807 807 805 804 803 802 801 801 802 802 802 804 803 803 802 798 794 791 786 784 786 786 786 786 786 785 785 785
854 856 858 858 860 861 862 862 862 862 863 864 863 862 862 861 860 859 857 856 854 852 850 847 845 844 841 839 838 836 835 835 834 832 831 829 827 825 824 823 821 820 818 817 816 815 814 813 812 810 809 808 808 806 805 805 804 804 804 803 802 801 800 798 798 799 798 798 799 800 799 798 796 796 796 789 783 783 784 784 784 784 783 783 783
856 858 860 860 862 862 863 864 864 865 865 865 864 863 862 861 860 858 857 855 853 852 850 847 846 845 843 842 841 839 838 837 836 834 832 829 826 824 822 820 819 818 817 816 815 814 812 811 810 808 807 806 805 804 803 802 801 800 800 800 799 799 798 796 794 795 795 795 795 795 794 795 795 795 796 793 786 781 780 781 782 782 781 781 780
859 860 861 862 863 863 864 866 866 866 866 864 864 863 862 861 860 858 857 855 854 852 850 848 847 846 844 843 842 841 840 838 835 833 830 828 825 823 821 819 818 817 816 815 814 813 811 810 808 807 805 804 803 802 800 799 798 798 797 797 796 796 795 793 791 791 792 790 790 791 790 791 792 792 792 792 790 784 779 779 779 779 779 778 777
860 861 863 864 864 865 866 866 866 866 865 865 864 864 863 861 860 858 856 855 854 852 851 849 848 847 845 844 843 841 840 838 835 832 829 827 824 822 820 819 817 816 815 814 813 811 810 808 806 805 803 802 801 800 799 798 797 795 794 794 793 792 792 791 789 788 788 786 786 787 786 787 788 788 789 789 789 786 780 776 776 776 775 775 775
862 863 864 865 865 866 866 866 866 866 866 866 865 863 862 860 859 858 857 856 854 853 851 850 849 848 846 845 843 841 838 836 833 831 829 826 824 822 820 818 817 816 814 813 812 810 808 807 805 804 802 801 799 798 797 796 795 793 792 791 790 789 788 788 786 784 784 783 782 782 782 783 784 784 785 785 785 783 779 776 775 775 772 770 772
864 864 865 866 866 867 867 867 867 867 866 864 863 863 862 861 861 860 859 857 856 854 853 851 850 849 847 845 843 840 838 835 833 831 828 826 825 823 821 819 817 816 814 813 811 809 807 806 804 803 801 800 798 797 795 794 792 791 790 788 787 786 785 784 782 781 781 779 779 778 777 777 778 778 778 779 779 779 777 774 773 773 770 766 767
865 865 866 867 867 868 867 867 867 866 865 864 864 864 864 863 862 861 859 858 856 855 853 852 850 848 846 843 841 840 838 836 834 832 830 828 826 824 822 820 818 816 814 812 811 808 806 805 803 801 800 798 796 795 793 792 790 788 787 785 784 783 782 781 779 777 777 776 775 774 773 771 771 771 772 773 773 772 773 771 770 771 769 763 763
865 866 867 868 868 869 869 869 869 868 868 867 867 866 865 864 862 861 860 858 857 855 853 851 848 846 844 843 842 840 839 837 835 834 832 830 828 825 823 820 817 815 813 811 809 807 805 803 801 799 797 796 794 793 791 790 788 786 783 781 780 779 778 777 775 772 772 772 770 770 769 767 766 766 767 767 767 768 769 768 767 769 768 762 760
867 868 868 869 870 871 871 871 871 870 870 869 867 866 865 864 863 861 860 858 856 854 852 849 847 846 845 844 842 841 839 838 836 835 833 831 829 826 823 821 818 815 812 810 807 804 802 800 798 796 794 792 791 789 787 786 785 783 780 778 776 775 774 772 770 768 767 766 766 765 764 763 762 762 762 762 763 764 764 764 764 766 765 761 759
868 869 870 871 872 872 872 872 871 871 870 869 867 866 865 864 863 861 859 857 855 853 851 849 848 847 846 844 843 841 840 838 837 835 833 830 828 825 823 820 817 814 811 808 805 802 799 797 795 792 790 788 786 785 783 781 780 778 776 774 772 771 770 768 765 764 762 761 761 760 759 758 757 757 758 757 757 758 758 759 761 762 762 760 758
870 870 871 872 873 873 873 872 872 871 870 868 867 866 865 864 862 861 859 858 856 855 853 851 850 848 846 844 843 841 839 838 836 834 831 829 826 824 821 818 816 813 809 806 803 800 797 794 792 790 787 785 783 781 779 776 775 773 770 768 767 766 765 763 761 759 757 756 755 755 754 752 751 753 753 752 752 752 753 754 756 758 758 757 755
870 871 872 873 873 873 873 873 872 871 870 869 868 867 865 864 862 861 860 859 858 856 854 851 849 847 845 844 842 840 838 836 834 831 829 827 825 822 819 817 814 811 807 804 801 798 796 793 790 788 786 783 780 778 776 773 771 769 766 764 762 761 760 757 755 754 752 751 750 749 748 746 746 747 748 747 747 747 748 750 750 752 754 753 751
870 871 873 873 873 873 873 873 872 871 871 870 868 867 866 865 864 863 861 860 858 856 853 851 848 846 844 843 841 839 837 835 833 830 827 825 823 820 818 815 812 809 806 803 800 797 794 791 789 786 783 781 778 775 773 771 769 766 763 761 759 758 756 752 750 749 747 746 745 744 742 741 741 742 742 742 742 742 743 744 745 746 748 748 747
870 872 873 873 873 873 873 873 872 872 871 870 869 868 866 865 864 863 861 859 857 855 852 850 848 845 843 842 840 838 836 834 831 828 826 823 821 818 816 813 810 807 804 801 797 794 791 788 786 783 780 778 775 773 771 769 767 764 761 758 756 755 753 748 746 745 743 741 740 738 737 736 736 736 737 737 737 738 738 739 740 741 742 742 742
871 872 873 873 873 873 873 873 873 873 872 870 869 868 866 865 863 862 860 858 856 853 851 848 846 844 842 840 838 836 834 831 828 826 824 821 819 816 813 810 807 804 801 798 794 791 788 786 783 781 778 775 773 771 769 767 764 761 759 756 753 753 750 745 743 741 740 738 735 733 732 731 732 732 732 732 732 733 733 734 735 735 736 737 737
871 872 873 873 873 874 874 874 873 873 872 870 869 867 866 864 862 861 858 856 854 852 849 847 844 842 840 838 836 834 831 829 826 824 822 819 817 814 810 807 804 801 798 795 792 789 787 784 781 778 776 773 771 768 766 764 761 758 756 754 751 749 747 743 740 737 736 734 732 729 727 727 727 727 726 727 727 728 728 729 730 730 730 732 733
872 873 873 873 874 874 874 874 873 872 870 869 868 866 865 863 862 860 858 856 854 851 848 846 843 840 838 836 834 832 829 827 824 822 820 817 814 811 808 805 802 799 796 793 790 787 784 782 778 776 773 771 768 766 764 762 759 756 753 750 748 746 743 740 737 734 731 731 729 726 723 722 723 722 721 722 722 722 723 723 724 725 725 726 728
873 874 874 874 874 874 873 873 872 871 870 868 867 866 865 863 861 859 857 855 853 850 847 844 841 839 837 835 833 830 828 825 822 820 817 815 812 809 807 803 800 797 794 791 788 785 782 779 776 773 770 768 765 762 761 758 756 753 749 747 745 743 740 736 734 730 728 727 725 722 719 718 718 718 717 717 717 717 718 718 719 720 720 721 723
874 874 874 874 874 874 873 873 872 871 870 868 868 866 865 863 861 859 857 854 852 848 845 843 840 838 836 834 831 828 826 823 820 818 815 813 810 807 804 801 797 794 791 788 785 782 779 776 773 770 767 765 762 759 757 754 752 749 746 743 740 738 736 733 730 727 724 723 721 717 715 714 714 714 712 712 713 713 713 714 714 715 715 716 717
874 874 874 874 874 874 874 873 872 871 870 869 868 866 864 863 860 858 856 853 851 848 845 842 839 837 835 832 830 827 824 822 819 817 814 811 808 805 802 798 795 791 788 785 782 779 777 774 771 768 765 762 759 756 753 750 748 746 742 739 736 734 731 728 725 723 720 718 716 712 710 710 710 709 708 708 708 709 709 709 709 709 710 711 713
874 875 874 874 875 874 874 874 873 871 870 868 867 865 864 862 860 858 856 853 850 847 844 842 839 836 833 831 828 826 823 821 818 815 812 809 805 802 799 795 792 788 785 782 779 777 774 771 768 765 762 759 756 753 750 747 744 741 739 735 732 730 727 724 721 719 716 714 712 708 706 706 706 704 703 703 704 704 705 705 704 704 706 707 708
875 875 875 875 875 874 874 873 872 871 870 868 867 865 863 861 859 857 855 852 850 847 844 841 838 835 832 829 827 824 821 819 815 812 809 806 803 799 796 793 789 786 783 780 777 774 771 768 765 761 759 756 753 749 747 743 740 737 734 731 728 725 721 718 716 713 711 709 707 704 703 702 701 700 699 699 700 700 700 700 700 700 701 702 703
876 875 875 875 875 873 873 872 871 870 868 867 865 863 862 860 858 856 854 851 849 845 842 839 836 833 830 828 825 822 819 816 813 810 807 803 800 797 793 790 787 785 781 778 775 771 768 765 762 759 755 752 749 745 742 739 735 732 729 725 722 718 715 712 709 707 705 703 701 699 698 696 696 695 694 694 694 695 695 694 694 695 696 697 698
876 875 875 875 874 873 872 871 870 868 866 865 864 862 861 859 857 855 852 849 846 843 840 837 834 831 829 826 823 820 817 814 811 808 804 801 798 794 791 788 785 782 779 775 772 769 765 761 757 754 751 748 745 741 737 734 730 726 722 718 714 711 708 704 701 699 698 696 695 693 691 690 690 689 688 688 688 689 689 688 689 690 691 692 693
876 875 875 874 873 872 871 869 868 867 865 864 862 860 859 857 855 853 850 847 844 841 838 836 833 830 827 824 821 819 815 812 809 806 802 799 796 793 789 786 782 779 775 772 768 764 761 757 752 748 745 742 739 735 731 728 725 721 717 712 708 705 702 699 696 693 691 690 688 686 684 683 682 682 681 681 681 682 682 682 683 684 685 686 687
876 875 874 873 872 871 870 869 867 866 864 862 861 859 857 855 854 851 848 846 843 840 837 834 831 828 826 823 820 817 813 810 807 804 800 797 793 790 786 782 778 774 770 767 763 759 756 752 748 744 740 736 733 729 725 722 718 715 711 707 703 699 696 693 690 688 685 683 681 679 678 676 675 674 674 674 674 675 675 675 675 677 678 680 681
876 875 874 873 871 870 869 868 866 865 863 861 860 858 856 854 852 849 847 844 841 839 835 832 830 827 824 821 817 814 811 807 805 801 798 794 790 786 782 778 774 770 766 762 759 755 751 747 744 740 736 731 727 722 719 715 711 707 703 700 696 692 690 687 684 682 679 677 675 673 671 669 668 667 667 667 667 667 668 668 669 670 671 672 674
875 874 873 871 870 869 868 866 865 864 862 861 859 857 855 853 850 847 845 842 839 837 834 831 828 825 821 819 815 812 808 805 802 799 794 791 786 782 778 775 771 767 763 759 755 752 748 744 741 736 732 727 722 717 713 708 704 700 696 693 690 687 684 681 679 676 674 672 669 667 664 662 661 661 660 661 661 662 662 663 663 664 666 667 668
874 873 872 871 870 868 867 866 864 863 861 859 857 856 853 851 849 846 843 840 838 835 832 829 826 823 820 817 813 810 806 802 799 795 791 788 784 780 776 773 769 765 761 757 753 749 744 740 737 733 728 723 717 711 707 702 697 694 690 687 684 681 679 676 673 671 669 667 665 662 659 657 656 655 655 655 656 657 658 658 659 660 662 663 664
873 872 871 870 869 867 866 864 863 861 860 858 856 854 852 849 847 844 841 839 836 833 830 828 824 821 818 815 811 807 803 799 796 792 789 785 781 778 774 770 767 763 760 755 751 746 741 736 733 729 724 719 712 707 702 697 691 687 684 681 678 676 673 671 668 667 665 663 660 658 655 652 651 651 650 651 652 653 654 655 656 657 659 660 662
872 872 871 869 867 866 864 863 861 860 858 856 854 852 850 847 845 842 839 837 834 831 829 826 823 819 816 813 809 805 801 797 794 790 787 783 779 776 772 768 764 760 757 753 749 745 739 734 729 725 721 715 708 702 697 691 686 681 678 675 673 670 668 666 663 662 660 658 656 654 651 649 647 646 646 647 648 649 650 652 653 654 656 657 659
872 870 869 868 866 864 863 861 860 858 856 854 852 850 847 845 842 840 838 835 833 830 827 824 821 817 814 811 808 804 799 796 792 789 784 780 777 773 770 767 763 757 753 750 746 741 736 731 726 721 716 711 704 697 692 686 680 676 672 669 667 665 663 660 658 657 655 654 651 649 647 645 644 643 643 643 644 645 647 648 650 652 653 654 656
870 869 867 866 864 863 861 860 858 856 854 852 850 848 846 843 840 838 836 833 831 828 825 822 819 816 813 809 806 803 799 794 791 787 783 779 775 771 767 765 761 756 751 746 742 737 732 727 723 718 713 708 701 693 688 682 676 671 667 664 662 660 657 655 653 652 650 649 647 645 644 642 641 640 640 640 640 642 643 645 647 649 651 652 653
868 867 865 864 863 861 860 858 856 854 852 850 848 846 844 841 839 836 833 831 828 825 823 820 816 813 811 807 804 800 797 793 789 785 781 777 773 769 765 762 758 754 749 744 740 735 729 723 719 714 709 704 698 691 684 678 671 665 662 659 656 654 652 650 649 647 646 645 644 642 640 639 638 637 637 637 637 639 640 642 644 646 648 649 650
866 865 864 863 861 860 858 856 854 852 850 848 846 844 841 839 836 834 831 828 825 823 820 817 814 811 808 804 801 797 794 791 787 782 779 775 771 767 762 758 755 751 746 741 737 733 727 720 715 710 705 700 695 689 682 676 669 662 656 653 651 649 647 645 644 643 642 641 640 639 637 636 635 634 634 634 635 636 637 639 640 643 644 645 646
864 863 863 861 859 858 856 854 852 850 848 846 844 841 839 836 834 831 829 826 823 820 818 814 811 808 805 802 799 795 792 788 785 781 777 772 769 766 761 757 752 748 744 739 734 730 725 718 712 708 703 697 692 688 681 674 667 659 652 648 645 643 642 640 639 639 638 638 637 636 635 634 633 632 632 632 632 633 634 636 637 638 640 642 644
863 862 860 859 857 856 853 851 850 848 845 843 841 839 836 834 832 829 827 824 822 818 815 812 809 806 803 800 797 794 790 786 783 780 775 771 767 764 760 756 751 747 742 738 732 728 723 716 710 705 700 695 690 685 680 673 665 656 648 642 638 637 637 636 635 635 635 634 633 633 633 632 632 631 630 630 630 630 632 632 633 634 636 638 641
861 860 858 857 855 853 851 849 847 845 843 841 839 836 834 832 829 827 825 822 819 816 813 810 807 804 801 798 795 791 788 785 782 779 775 770 766 762 758 754 750 746 741 736 731 726 721 715 708 702 697 693 689 683 678 673 665 655 646 639 634 632 632 632 631 631 631 630 630 630 630 630 630 629 629 629 628 628 629 629 630 631 633 635 637
859 858 856 855 852 850 849 846 844 843 841 839 837 834 832 830 827 825 823 819 817 814 811 808 805 802 798 796 793 789 786 783 780 777 773 769 765 760 756 752 749 745 740 735 730 726 721 716 709 702 696 692 688 682 677 672 665 656 648 640 635 631 629 629 628 628 627 627 627 627 627 627 627 627 626 626 626 626 626 626 627 628 630 631 633
857 855 854 853 850 848 846 844 842 841 839 837 836 833 830 827 825 823 820 817 814 812 809 805 802 799 796 793 790 787 784 781 778 775 772 768 763 759 755 750 747 743 739 735 731 726 722 716 710 704 698 692 688 683 677 671 665 658 651 644 638 633 630 628 627 626 626 625 625 624 624 624 624 624 623 623 623 623 624 624 624 626 627 629 630
855 853 852 851 848 846 844 842 839 838 837 835 833 831 828 825 823 821 819 816 813 810 806 803 800 797 794 791 787 784 781 778 776 774 771 767 763 760 755 750 746 743 738 735 731 726 722 717 711 706 700 694 689 684 678 672 666 660 655 648 641 636 632 629 627 626 625 625 623 623 622 622 621 621 621 621 621 621 621 622 623 624 625 626 626
853 851 850 848 846 844 842 840 837 836 834 832 830 828 826 823 821 819 817 814 811 808 804 801 798 795 792 788 785 782 778 776 773 771 768 765 762 759 755 751 746 742 738 734 731 726 722 718 712 707 701 695 690 685 679 673 668 663 658 652 646 640 635 632 629 627 626 625 624 623 622 621 620 619 618 618 619 619 619 620 621 621 622 623 624
851 850 848 846 844 842 840 838 836 833 832 830 827 825 824 821 819 817 814 811 809 806 802 799 796 793 790 787 784 780 777 774 771 768 766 763 760 756 753 750 747 743 739 735 731 727 723 719 714 709 703 696 691 686 681 676 671 666 661 655 650 644 639 635 632 629 628 627 625 623 622 620 619 618 617 617 617 617 618 619 619 620 621 621 621
848 847 846 844 842 840 838 836 833 831 829 827 825 823 821 819 816 814 812 809 806 803 800 796 793 791 788 785 782 779 776 773 770 766 764 762 759 756 752 748 745 743 739 735 732 729 725 720 715 711 706 700 694 689 684 679 673 668 663 659 654 649 644 640 636 632 630 628 627 626 624 623 622 621 619 618 618 617 618 618 618 619 619 620 620
846 845 843 842 840 838 836 833 831 829 827 824 822 820 818 816 814 812 810 807 804 801 797 794 791 789 786 783 780 777 774 772 768 765 762 758 756 755 752 748 744 740 736 733 730 727 723 720 716 712 707 703 698 692 686 680 674 669 665 661 657 652 648 644 640 635 632 630 631 631 629 628 627 625 624 622 621 620 620 620 619 619 619 619 619
844 842 840 839 837 835 833 831 828 827 824 822 820 817 815 814 812 810 807 805 802 799 795 792 790 787 784 782 779 776 773 770 767 764 761 756 752 748 747 746 743 739 734 730 727 724 720 717 714 711 707 703 698 692 687 681 675 670 666 663 659 655 651 647 644 639 635 635 636 635 634 633 632 630 628 627 625 624 624 623 622 621 620 619 619